Regional Weather Roundup
Issued by NWS

Home | Current Version | Previous Version | Graphics & Text | Print | Product List | Glossary On
Versions: 1 2 3 4 5 6 7 8 9 10 11 12 13 14 15 16 17 18 19 20 21 22 23 24 25 26 27 28 29 30 31 32 33 34 35 36 37 38 39 40 41 42 43 44 45 46 47 48 49 50
000
ASUS43 KLMK 182110
RWRKY
KENTUCKY REGIONAL WEATHER ROUNDUP
NATIONAL WEATHER SERVICE LOUISVILLE KY
400 PM EST THU DEC 18 2014

NOTE "FAIR" INDICATES FEW OR NO CLOUDS BELOW 12,000 FEET
WITH NO SIGNIFICANT WEATHER AND/OR OBSTRUCTIONS TO VISIBILITY.

KYZ001>023-026-027-061>063-070>075-182200-
WESTERN AND SOUTH CENTRAL KENTUCKY

CITY           SKY/WX    TMP DP  RH WIND       PRES   REMARKS
PADUCAH        CLOUDY    36  31  82 NE5       30.22S WCI  32
HENDERSON      CLOUDY    34  25  69 E5        30.22F WCI  30
OWENSBORO      CLOUDY    34  26  72 VRB6      30.23F WCI  29
HOPKINSVILLE   CLOUDY    35  29  81 E5        30.21F WCI  31
BOWLING GREEN  CLOUDY    35  26  69 CALM      30.23R
GLASGOW        CLOUDY    34  27  75 CALM      30.22R
$$

KYZ024-025-028>034-038-045-046-053-182200-
NORTH CENTRAL KENTUCKY

CITY           SKY/WX    TMP DP  RH WIND       PRES   REMARKS
LOUISVILLE/SDF CLOUDY    34  23  64 CALM      30.22F
LOUISVILLE/LOU CLOUDY    33  23  66 N3        30.23S
FORT KNOX      CLOUDY    33  24  71 VRB5      30.20S WCI  28
$$

KYZ035>037-039>044-047>052-055>060-089>105-182200-
NORTHEAST KENTUCKY

CITY           SKY/WX    TMP DP  RH WIND       PRES   REMARKS
LEXINGTON      CLOUDY    31  24  75 N3        30.20F
COVINGTON      CLOUDY    30  19  63 NW3       30.21R
FRANKFORT      CLOUDY    32  23  69 NW3       30.20F
$$

KYZ054-064>069-076>088-106>120-182200-
SOUTHEAST KENTUCKY

CITY           SKY/WX    TMP DP  RH WIND       PRES   REMARKS
JACKSON        CLOUDY    33  23  66 CALM      30.18S
LONDON         CLOUDY    37  25  61 CALM      30.17F
SOMERSET       CLOUDY    34  27  75 CALM      30.21R
MIDDLESBORO    CLOUDY    40  28  62 NW7       30.17R
MONTICELLO     CLOUDY    36  28  73 CALM      30.22S
$$



USA.gov is the U.S. government's official web portal to all federal, state and local government web resources and services.